Location: ?ern� Novina
(50.6762°N, 14.8696°E)
Time: 11:12:14
(UTC+00:00)

Cosmos 1777 Rocket - Pass Details

Date: 03 March 2021
Orbit: 759 x 775 km, 74.0° (Epoch: 16 April)

Event Time Altitude Azimuth Distance (km) Brightness Sun altitude
Rises 18:27:03 0° 336° (NNW) 3,252 7.8 -16.8°
Reaches altitude 10° 18:29:27 10° 338° (NNW) 2,318 6.9 -17.2°
Maximum altitude 18:34:43 76° 64° (ENE) 794 3.9 -18.0°
Enters shadow 18:38:02 23° 148° (SSE) 1,583 5.2 -18.5°
